Skip Page Navigation
NASA JPL Caltech
NASA Logo - Jet Propulsion Laboratory + View the NASA Portal
+ Center for Near-Earth Object Studies
JPL Home Earth Solar System Stars & Galaxies Technology
JPL Solar System Dynamics
BODIES ORBITS EPHEMERIDES TOOLS PHYSICAL DATA DISCOVERY FAQ SITE MAP
IMPORTANT: The SSD Announcement email list is now available. Major changes are coming in the near future, including possible hostname and/or URL changes. To be notified of such changes, subscribe to this email list.

Please visit this page for more details.


JPL Small-Body Database Browser
Search: [ help ]  
226419 (2003 RJ5)
Classification: Main-belt Asteroid          SPK-ID: 2226419
Ephemeris | Orbit Diagram | Orbital Elements | Mission Design | Physical Parameters | Discovery Circumstances | Close-Approach Data ]

[ show orbit diagram ]
Orbital Elements at Epoch 2458600.5 (2019-Apr-27.0) TDB
Reference: JPL 6 (heliocentric ecliptic J2000)
 Element Value Uncertainty (1-sigma)   Units 
e .2410355039917101 1.2447e-07  
a 2.997847674007095 3.2036e-08 au
q 2.275259949012419 3.6438e-07 au
i 2.666083219401615 8.1581e-06 deg
node 294.1444119313225 0.00028748 deg
peri 11.4037924954365 0.0002893 deg
M 27.94920341701837 3.1514e-05 deg
tp 2458453.309526183723
(2018-Nov-30.80952618)
0.00016445 TDB
period 1895.88840094078
5.19
3.0391e-05
8.321e-08
d
yr
n .189884594378741 3.0438e-09 deg/d
Q 3.72043539900177 3.9758e-08 au
  Orbit Determination Parameters
   # obs. used (total)      132  
   data-arc span      9537 days (26.11 yr)  
   first obs. used      1993-10-09  
   last obs. used      2019-11-19  
   planetary ephem.      DE431  
   SB-pert. ephem.      SB431-N16  
   condition code      0  
   norm. resid. RMS      .60856  
   source      ORB  
   producer      Otto Matic  
   solution date      2019-Dec-14 15:35:27  

Additional Information
 Earth MOID = 1.2595 au 
 Jupiter MOID = 1.54442 au 
 T_jup = 3.207 
[ show covariance matrix ]

Ephemeris | Orbit Diagram | Orbital Elements | Mission Design | Physical Parameters | Discovery Circumstances | Close-Approach Data ]

Physical Parameter Table
Parameter Symbol Value Units Sigma Reference Notes
absolute magnitude H 16.4   n/a MPO164798  

226419 (2003 RJ5)          Discovered 2003-Sep-02 by LINEAR at Socorro
Reference: 20091202/Numbers.arcLast Updated: 2009-12-04

[ hide close-approach data ]
Close-Approach Data   ...sorted by Date/Time (TDB)
Date/Time (TDB) Time Uncertainty
(days_HH:MM)
Body Nominal Distance (au) Minimum Distance (au) Maximum Distance (au) V-relative (km/s) V-infinity (km/s) JD (TDB) Time Uncertainty (minutes) Semi-major axis (km) Semi-minor axis (km) range-LOV angle (deg) N-sigma BP Orbit Ref. Reference Modified
1906-Jul-03 14:01 00:06 Jupiter 1.65957419801502 1.659570938696 1.6595774573515 1.42500848670855 1.00492701073088 2417395.083958918 5.80178362457788 1048.63933194148 153.212770055955 -35.9878821908111 1186544.2913859 T 6 CATAB v2.0f-lin.ifort 2019-Dec-14 15:35:29 2019-Dec-14 15:35
1943-Aug-23 23:45 00:04 Jupiter 1.59082017387147 1.59081792384484 1.5908224247029 1.09649321821087 0.370687947818655 2430960.489431921 3.57592021859249 10962.3020381068 1743.66509441 -24.8150565752891 1497099.32773548 T 6 CATAB v2.0f-lin.ifort 2019-Dec-14 15:35:29 2019-Dec-14 15:35
1989-Aug-27 09:50 00:01 Jupiter 1.64647159052272 1.64646975476623 1.64647342630505 1.40042724486767 0.965558020758463 2447765.909798589 1.48313646083712 949.385685017119 155.237097547871 -39.549398045825 1624284.45704183 T 6 CATAB v2.0f-lin.ifort 2019-Dec-14 15:35:29 2019-Dec-14 15:35
2026-Oct-16 23:29 00:01 Jupiter 1.60593297056298 1.60593206768843 1.6059338739324 1.08501482878531 0.34984366748306 2461330.478757095 1.09118240610151 11336.3798795995 1700.61282499423 -20.5322832887428 1480289.19063947 T 6 CATAB v2.0f-lin.ifort 2019-Dec-14 15:35:29 2019-Dec-14 15:35
2072-Oct-20 12:59 00:03 Jupiter 1.64130403162109 1.6413016243225 1.64130643897828 1.39355710330862 0.953869909677935 2478136.041136690 3.41004519824199 1209.61683264997 148.27978845739 -43.186399808066 1674492.52443255 T 6 CATAB v2.0f-lin.ifort 2019-Dec-14 15:35:29 2019-Dec-14 15:35
2109-Dec-08 20:03 00:05 Jupiter 1.61248284435154 1.61248119105545 1.61248449768081 1.05637542290044 0.25563116898196 2491698.335679242 5.16096833535094 26400.2901530261 1936.58909041003 -9.76222321422663 1549492.71989252 T 6 CATAB v2.0f-lin.ifort 2019-Dec-14 15:35:29 2019-Dec-14 15:35
2155-Dec-15 12:11 00:08 Jupiter 1.63812538542498 1.63812141768957 1.63812935333833 1.38330984468425 0.937768500924792 2508506.007956143 7.79646668396434 1845.88099255543 149.088916663716 -45.8004680949364 1547180.12149487 T 6 CATAB v2.0f-lin.ifort 2019-Dec-14 15:35:29 2019-Dec-14 15:35
2193-Feb-02 08:28 00:10 Jupiter 1.63484507088346 1.63484148952106 1.63484865256378 1.04665378735157 0.243460042329988 2522069.852812014 9.517801279595 31997.4606470597 2594.86854975083 -10.0617242949608 1640207.88770269 T 6 CATAB v2.0f-lin.ifort 2019-Dec-14 15:35:29 2019-Dec-14 15:35

Alternate Designations
 2003 RJ5 = 1993 TU5 
Ephemeris | Orbit Diagram | Orbital Elements | Mission Design | Physical Parameters | Discovery Circumstances | Close-Approach Data ]
ABOUT SSD CREDITS/AWARDS PRIVACY/COPYRIGHT GLOSSARY LINKS
FirstGov 2020-Jan-24 11:41 UT
(server date/time)  
NASA Home Page
Site Manager:   Ryan S. Park
Webmaster  Alan B. Chamberlin